Time,TemperatureF,DewpointF,PressureIn,WindDirection,WindDirectionDegrees,WindSpeedMPH,WindSpeedGustMPH,Humidity,HourlyPrecipIn,Conditions,Clouds,dailyrainin,SoftwareType,DateUTC
2013-03-01 00:00:00,33.6,24.5,0.00,WSW,241,0.0,0.0,69,0.00,,---,0.00,VWS V14.01,2013-03-01 05:00:00,
2013-03-01 00:01:00,33.6,24.5,0.00,WSW,241,0.0,0.0,69,0.00,,---,0.00,VWS V14.01,2013-03-01 05:01:00,
2013-03-01 00:06:00,33.6,24.5,0.00,WSW,241,0.0,0.0,69,0.00,,---,0.00,VWS V14.01,2013-03-01 05:06:00,
2013-03-01 00:11:00,33.6,24.5,0.00,WSW,241,0.0,0.0,69,0.00,,---,0.00,VWS V14.01,2013-03-01 05:11:00,
2013-03-01 00:16:00,33.6,24.5,0.00,WSW,241,0.0,0.0,69,0.00,,---,0.00,VWS V14.01,2013-03-01 05:16:00,
2013-03-01 00:21:00,33.6,24.5,0.00,WSW,241,0.0,0.0,69,0.00,,---,0.00,VWS V14.01,2013-03-01 05:21:00,
2013-03-01 00:26:00,33.6,24.5,0.00,WSW,241,0.0,0.0,69,0.00,,---,0.00,VWS V14.01,2013-03-01 05:26:00,
2013-03-01 00:31:00,33.4,24.4,0.00,WSW,241,0.0,0.0,69,0.00,,---,0.00,VWS V14.01,2013-03-01 05:31:00,
2013-03-01 00:36:00,33.4,24.4,0.00,WSW,241,0.0,0.0,69,0.00,,---,0.00,VWS V14.01,2013-03-01 05:36:00,
2013-03-01 00:41:00,33.6,24.5,0.00,WSW,241,0.0,0.0,69,0.00,,---,0.00,VWS V14.01,2013-03-01 05:41:00,
2013-03-01 00:46:00,33.6,24.9,0.00,WSW,241,0.0,0.0,70,0.00,,---,0.00,VWS V14.01,2013-03-01 05:46:00,
2013-03-01 00:51:00,33.6,24.5,0.00,WSW,241,0.0,0.0,69,0.00,,---,0.00,VWS V14.01,2013-03-01 05:51:00,
2013-03-01 00:56:00,33.6,24.9,0.00,WSW,241,0.0,0.0,70,0.00,,---,0.00,VWS V14.01,2013-03-01 05:56:00,
2013-03-01 01:01:00,33.8,24.7,0.00,WSW,241,0.0,0.0,69,0.00,,---,0.00,VWS V14.01,2013-03-01 06:01:00,
2013-03-01 01:06:00,33.8,25.1,0.00,WSW,241,0.0,0.0,70,0.00,,---,0.00,VWS V14.01,2013-03-01 06:06:00,
2013-03-01 01:11:00,33.8,24.7,0.00,WSW,241,0.0,0.0,69,0.00,,---,0.00,VWS V14.01,2013-03-01 06:11:00,
2013-03-01 01:16:00,33.8,24.7,0.00,WSW,241,0.0,0.0,69,0.00,,---,0.00,VWS V14.01,2013-03-01 06:16:00,
2013-03-01 01:21:00,33.8,24.7,0.00,WSW,241,0.0,0.0,69,0.00,,---,0.00,VWS V14.01,2013-03-01 06:21:00,
2013-03-01 01:26:00,33.8,24.7,0.00,WSW,241,0.0,0.0,69,0.00,,---,0.00,VWS V14.01,2013-03-01 06:26:00,
2013-03-01 01:31:00,33.8,24.7,0.00,WSW,241,0.0,0.0,69,0.00,,---,0.00,VWS V14.01,2013-03-01 06:31:00,
2013-03-01 01:36:00,33.6,24.9,0.00,WSW,241,0.0,0.0,70,0.00,,---,0.00,VWS V14.01,2013-03-01 06:36:00,
2013-03-01 01:41:00,33.6,24.9,0.00,WSW,241,0.0,0.0,70,0.00,,---,0.00,VWS V14.01,2013-03-01 06:41:00,
2013-03-01 01:46:00,33.4,24.7,0.00,WSW,241,0.0,0.0,70,0.00,,---,0.00,VWS V14.01,2013-03-01 06:46:00,
2013-03-01 01:51:00,33.6,24.9,0.00,WSW,241,0.0,0.0,70,0.00,,---,0.00,VWS V14.01,2013-03-01 06:51:00,
2013-03-01 01:56:00,33.6,24.9,0.00,WSW,241,0.0,0.0,70,0.00,,---,0.00,VWS V14.01,2013-03-01 06:56:00,
2013-03-01 02:01:00,33.6,24.9,0.00,WSW,241,0.0,0.0,70,0.00,,---,0.00,VWS V14.01,2013-03-01 07:01:00,
2013-03-01 02:06:00,33.6,24.9,0.00,WSW,241,0.0,0.0,70,0.00,,---,0.00,VWS V14.01,2013-03-01 07:06:00,
2013-03-01 02:11:00,33.6,24.9,0.00,WSW,241,0.0,0.0,70,0.00,,---,0.00,VWS V14.01,2013-03-01 07:11:00,
2013-03-01 02:16:00,33.6,24.9,0.00,WSW,241,0.0,0.0,70,0.00,,---,0.00,VWS V14.01,2013-03-01 07:16:00,
2013-03-01 02:21:00,33.6,24.9,0.00,WSW,241,0.0,0.0,70,0.00,,---,0.00,VWS V14.01,2013-03-01 07:21:00,
2013-03-01 02:26:00,33.6,24.9,0.00,WSW,241,0.0,0.0,70,0.00,,---,0.00,VWS V14.01,2013-03-01 07:26:00,
2013-03-01 02:31:00,33.6,24.9,0.00,WSW,241,0.0,0.0,70,0.00,,---,0.00,VWS V14.01,2013-03-01 07:31:00,
2013-03-01 02:36:00,33.6,24.9,0.00,WSW,241,0.0,0.0,70,0.00,,---,0.00,VWS V14.01,2013-03-01 07:36:00,
2013-03-01 02:41:00,33.6,24.9,0.00,WSW,241,0.0,0.0,70,0.00,,---,0.00,VWS V14.01,2013-03-01 07:41:00,
2013-03-01 02:46:00,33.6,24.9,0.00,WSW,241,0.0,0.0,70,0.00,,---,0.00,VWS V14.01,2013-03-01 07:46:00,
2013-03-01 02:51:00,33.6,24.9,0.00,WSW,241,0.0,0.0,70,0.00,,---,0.00,VWS V14.01,2013-03-01 07:51:00,
2013-03-01 02:56:00,33.6,24.9,0.00,WSW,241,0.0,0.0,70,0.00,,---,0.00,VWS V14.01,2013-03-01 07:56:00,
2013-03-01 03:01:00,33.4,24.7,0.00,WSW,241,0.0,0.0,70,0.00,,---,0.00,VWS V14.01,2013-03-01 08:01:00,
2013-03-01 03:06:00,33.4,24.7,0.00,WSW,241,0.0,0.0,70,0.00,,---,0.00,VWS V14.01,2013-03-01 08:06:00,
2013-03-01 03:11:00,33.4,24.7,0.00,WSW,241,0.0,0.0,70,0.00,,---,0.00,VWS V14.01,2013-03-01 08:11:00,
2013-03-01 03:16:00,33.4,24.7,0.00,WSW,241,0.0,0.0,70,0.00,,---,0.00,VWS V14.01,2013-03-01 08:16:00,
2013-03-01 03:21:00,33.4,24.7,0.00,WSW,241,0.0,0.0,70,0.00,,---,0.00,VWS V14.01,2013-03-01 08:21:00,
2013-03-01 03:26:00,33.4,24.7,0.00,WSW,241,0.0,0.0,70,0.00,,---,0.00,VWS V14.01,2013-03-01 08:26:00,
2013-03-01 03:31:00,33.4,24.7,0.00,WSW,241,0.0,0.0,70,0.00,,---,0.00,VWS V14.01,2013-03-01 08:31:00,
2013-03-01 03:36:00,33.6,24.9,0.00,WSW,241,0.0,0.0,70,0.00,,---,0.00,VWS V14.01,2013-03-01 08:36:00,
2013-03-01 03:41:00,33.6,24.9,0.00,WSW,241,0.0,0.0,70,0.00,,---,0.00,VWS V14.01,2013-03-01 08:41:00,
2013-03-01 03:46:00,33.6,24.9,0.00,WSW,241,0.0,0.0,70,0.00,,---,0.00,VWS V14.01,2013-03-01 08:46:00,
2013-03-01 03:51:00,33.4,24.7,0.00,WSW,241,0.0,0.0,70,0.00,,---,0.00,VWS V14.01,2013-03-01 08:51:00,
2013-03-01 03:56:00,33.3,24.5,0.00,WSW,241,0.0,0.0,70,0.00,,---,0.00,VWS V14.01,2013-03-01 08:56:00,
2013-03-01 04:01:00,33.4,24.7,0.00,WSW,241,0.0,0.0,70,0.00,,---,0.00,VWS V14.01,2013-03-01 09:01:00,
2013-03-01 04:06:00,33.4,24.7,0.00,WSW,241,0.0,0.0,70,0.00,,---,0.00,VWS V14.01,2013-03-01 09:06:00,
2013-03-01 04:11:00,33.3,24.5,0.00,WSW,241,0.0,0.0,70,0.00,,---,0.00,VWS V14.01,2013-03-01 09:11:00,
2013-03-01 04:16:00,33.4,24.7,0.00,WSW,241,0.0,0.0,70,0.00,,---,0.00,VWS V14.01,2013-03-01 09:16:00,
2013-03-01 04:21:00,33.4,24.7,0.00,WSW,241,0.0,0.0,70,0.00,,---,0.00,VWS V14.01,2013-03-01 09:21:00,
2013-03-01 04:26:00,33.4,24.7,0.00,WSW,241,0.0,0.0,70,0.00,,---,0.00,VWS V14.01,2013-03-01 09:26:00,
2013-03-01 04:31:00,33.4,24.7,0.00,WSW,241,0.0,0.0,70,0.00,,---,0.00,VWS V14.01,2013-03-01 09:31:00,
2013-03-01 04:36:00,33.4,24.7,0.00,WSW,241,0.0,0.0,70,0.00,,---,0.00,VWS V14.01,2013-03-01 09:36:00,
2013-03-01 04:41:00,33.4,24.7,0.00,WSW,241,0.0,0.0,70,0.00,,---,0.00,VWS V14.01,2013-03-01 09:41:00,
2013-03-01 04:46:00,33.3,24.5,0.00,WSW,241,0.0,0.0,70,0.00,,---,0.00,VWS V14.01,2013-03-01 09:46:00,
2013-03-01 04:51:00,33.1,24.4,0.00,WSW,241,0.0,0.0,70,0.00,,---,0.00,VWS V14.01,2013-03-01 09:51:00,
2013-03-01 04:56:00,33.1,24.4,0.00,WSW,241,0.0,0.0,70,0.00,,---,0.00,VWS V14.01,2013-03-01 09:56:00,
2013-03-01 05:01:00,32.9,24.2,0.00,WSW,241,0.0,0.0,70,0.00,,---,0.00,VWS V14.01,2013-03-01 10:01:00,
2013-03-01 05:06:00,32.9,24.2,0.00,WSW,241,0.0,0.0,70,0.00,,---,0.00,VWS V14.01,2013-03-01 10:06:00,
2013-03-01 05:11:00,32.7,24.0,0.00,WSW,241,0.0,0.0,70,0.00,,---,0.00,VWS V14.01,2013-03-01 10:11:00,
2013-03-01 05:16:00,32.7,24.0,0.00,WSW,241,0.0,0.0,70,0.00,,---,0.00,VWS V14.01,2013-03-01 10:16:00,
2013-03-01 05:21:00,32.9,24.2,0.00,WSW,241,0.0,0.0,70,0.00,,---,0.00,VWS V14.01,2013-03-01 10:21:00,
2013-03-01 05:26:00,32.9,24.2,0.00,WSW,241,0.0,0.0,70,0.00,,---,0.00,VWS V14.01,2013-03-01 10:26:00,
2013-03-01 05:31:00,32.7,24.0,0.00,WSW,241,0.0,0.0,70,0.00,,---,0.00,VWS V14.01,2013-03-01 10:31:00,
2013-03-01 05:36:00,32.5,23.5,0.00,WSW,241,0.0,0.0,69,0.00,,---,0.00,VWS V14.01,2013-03-01 10:36:00,
2013-03-01 05:41:00,32.5,23.5,0.00,WSW,241,0.0,0.0,69,0.00,,---,0.00,VWS V14.01,2013-03-01 10:41:00,
2013-03-01 05:46:00,32.5,23.5,0.00,WSW,241,0.0,0.0,69,0.00,,---,0.00,VWS V14.01,2013-03-01 10:46:00,
2013-03-01 05:51:00,32.5,23.5,0.00,WSW,243,0.0,0.0,69,0.00,,---,0.00,VWS V14.01,2013-03-01 10:51:00,
2013-03-01 05:56:00,32.5,23.5,0.00,WSW,241,0.0,0.0,69,0.00,,---,0.00,VWS V14.01,2013-03-01 10:56:00,
2013-03-01 06:01:00,32.5,23.5,0.00,WSW,241,0.0,0.0,69,0.00,,---,0.00,VWS V14.01,2013-03-01 11:01:00,
2013-03-01 06:06:00,32.4,23.0,0.00,WSW,241,0.0,0.0,68,0.00,,---,0.00,VWS V14.01,2013-03-01 11:06:00,
2013-03-01 06:11:00,32.2,22.8,0.00,WSW,241,0.0,0.0,68,0.00,,---,0.00,VWS V14.01,2013-03-01 11:11:00,
2013-03-01 06:16:00,32.2,22.8,0.00,WSW,241,0.0,0.0,68,0.00,,---,0.00,VWS V14.01,2013-03-01 11:16:00,
2013-03-01 06:21:00,32.4,23.0,0.00,WSW,241,0.0,0.0,68,0.00,,---,0.00,VWS V14.01,2013-03-01 11:21:00,
2013-03-01 06:26:00,32.4,23.0,0.00,WSW,241,0.0,0.0,68,0.00,,---,0.00,VWS V14.01,2013-03-01 11:26:00,
2013-03-01 06:31:00,32.5,23.2,0.00,WSW,241,0.0,0.0,68,0.00,,---,0.00,VWS V14.01,2013-03-01 11:31:00,
2013-03-01 06:36:00,32.7,23.3,0.00,WSW,241,0.0,0.0,68,0.00,,---,0.00,VWS V14.01,2013-03-01 11:36:00,
2013-03-01 06:41:00,32.7,23.3,0.00,WSW,241,0.0,0.0,68,0.00,,---,0.00,VWS V14.01,2013-03-01 11:41:00,
2013-03-01 06:46:00,32.5,23.2,0.00,WSW,241,0.0,0.0,68,0.00,,---,0.00,VWS V14.01,2013-03-01 11:46:00,
2013-03-01 06:51:00,32.5,23.2,0.00,WSW,241,0.0,0.0,68,0.00,,---,0.00,VWS V14.01,2013-03-01 11:51:00,
2013-03-01 06:56:00,32.7,23.3,0.00,WSW,241,0.0,0.0,68,0.00,,---,0.00,VWS V14.01,2013-03-01 11:56:00,
2013-03-01 07:01:00,32.7,23.3,0.00,WSW,241,0.0,0.0,68,0.00,,---,0.00,VWS V14.01,2013-03-01 12:01:00,
2013-03-01 07:06:00,32.5,23.2,0.00,WSW,241,0.0,0.0,68,0.00,,---,0.00,VWS V14.01,2013-03-01 12:06:00,
2013-03-01 07:11:00,32.5,23.2,0.00,WSW,241,0.0,0.0,68,0.00,,---,0.00,VWS V14.01,2013-03-01 12:11:00,
2013-03-01 07:16:00,32.5,23.2,0.00,WSW,241,0.0,0.0,68,0.00,,---,0.00,VWS V14.01,2013-03-01 12:16:00,
2013-03-01 07:21:00,32.4,22.6,0.00,WSW,241,0.0,0.0,67,0.00,,---,0.00,VWS V14.01,2013-03-01 12:21:00,
2013-03-01 07:26:00,32.4,22.6,0.00,WSW,241,0.0,0.0,67,0.00,,---,0.00,VWS V14.01,2013-03-01 12:26:00,
2013-03-01 07:31:00,32.2,22.5,0.00,WSW,241,0.0,0.0,67,0.00,,---,0.00,VWS V14.01,2013-03-01 12:31:00,
2013-03-01 07:36:00,32.2,22.5,0.00,WSW,241,0.0,0.0,67,0.00,,---,0.00,VWS V14.01,2013-03-01 12:36:00,
2013-03-01 07:41:00,32.2,22.5,0.00,WSW,241,0.0,0.0,67,0.00,,---,0.00,VWS V14.01,2013-03-01 12:41:00,
2013-03-01 07:46:00,32.2,22.5,0.00,WSW,241,0.0,0.0,67,0.00,,---,0.00,VWS V14.01,2013-03-01 12:46:00,
2013-03-01 07:51:00,32.0,22.3,0.00,WSW,241,0.0,0.0,67,0.00,,---,0.00,VWS V14.01,2013-03-01 12:51:00,
2013-03-01 07:56:00,32.0,22.3,0.00,WSW,241,0.0,0.0,67,0.00,,---,0.00,VWS V14.01,2013-03-01 12:56:00,
2013-03-01 08:01:00,32.0,22.3,0.00,WSW,241,0.0,0.0,67,0.00,,---,0.00,VWS V14.01,2013-03-01 13:01:00,
2013-03-01 08:06:00,32.2,22.5,0.00,WSW,241,0.0,0.0,67,0.00,,---,0.00,VWS V14.01,2013-03-01 13:06:00,
2013-03-01 08:11:00,32.2,22.5,0.00,WSW,241,0.0,0.0,67,0.00,,---,0.00,VWS V14.01,2013-03-01 13:11:00,
2013-03-01 08:16:00,32.4,22.6,0.00,WSW,241,0.0,0.0,67,0.00,,---,0.00,VWS V14.01,2013-03-01 13:16:00,
2013-03-01 08:21:00,32.4,22.6,0.00,WSW,241,0.0,0.0,67,0.00,,---,0.00,VWS V14.01,2013-03-01 13:21:00,
2013-03-01 08:26:00,32.2,22.1,0.00,WSW,241,0.0,0.0,66,0.00,,---,0.00,VWS V14.01,2013-03-01 13:26:00,
2013-03-01 08:31:00,32.2,22.1,0.00,WSW,241,0.0,0.0,66,0.00,,---,0.00,VWS V14.01,2013-03-01 13:31:00,
2013-03-01 08:36:00,32.4,22.3,0.00,WSW,241,0.0,0.0,66,0.00,,---,0.00,VWS V14.01,2013-03-01 13:36:00,
2013-03-01 08:41:00,32.4,22.3,0.00,WSW,241,0.0,0.0,66,0.00,,---,0.00,VWS V14.01,2013-03-01 13:41:00,
2013-03-01 08:46:00,32.2,22.1,0.00,WSW,241,0.0,0.0,66,0.00,,---,0.00,VWS V14.01,2013-03-01 13:46:00,
2013-03-01 08:51:00,32.2,22.1,0.00,WSW,241,0.0,0.0,66,0.00,,---,0.00,VWS V14.01,2013-03-01 13:51:00,
2013-03-01 08:56:00,32.2,21.8,0.00,WSW,241,0.0,0.0,65,0.00,,---,0.00,VWS V14.01,2013-03-01 13:56:00,
2013-03-01 09:01:00,32.2,21.8,0.00,WSW,241,0.0,0.0,65,0.00,,---,0.00,VWS V14.01,2013-03-01 14:01:00,
2013-03-01 09:06:00,32.2,21.8,0.00,WSW,241,0.0,0.0,65,0.00,,---,0.00,VWS V14.01,2013-03-01 14:06:00,
2013-03-01 09:11:00,32.5,22.5,0.00,WSW,241,0.0,0.0,66,0.00,,---,0.00,VWS V14.01,2013-03-01 14:11:00,
2013-03-01 09:16:00,32.5,22.1,0.00,WSW,241,0.0,0.0,65,0.00,,---,0.00,VWS V14.01,2013-03-01 14:16:00,
2013-03-01 09:21:00,32.5,22.1,0.00,WSW,241,0.0,0.0,65,0.00,,---,0.00,VWS V14.01,2013-03-01 14:21:00,
2013-03-01 09:26:00,32.5,22.1,0.00,WSW,241,0.0,0.0,65,0.00,,---,0.00,VWS V14.01,2013-03-01 14:26:00,
2013-03-01 09:31:00,32.5,22.1,0.00,WSW,241,0.0,0.0,65,0.00,,---,0.00,VWS V14.01,2013-03-01 14:31:00,
2013-03-01 09:36:00,32.5,21.7,0.00,WSW,241,0.0,0.0,64,0.00,,---,0.00,VWS V14.01,2013-03-01 14:36:00,
2013-03-01 09:41:00,32.4,21.6,0.00,WSW,241,0.0,0.0,64,0.00,,---,0.00,VWS V14.01,2013-03-01 14:41:00,
2013-03-01 09:46:00,32.4,21.6,0.00,WSW,241,0.0,0.0,64,0.00,,---,0.00,VWS V14.01,2013-03-01 14:46:00,
2013-03-01 09:51:00,32.4,21.6,0.00,WSW,241,0.0,0.0,64,0.00,,---,0.00,VWS V14.01,2013-03-01 14:51:00,
2013-03-01 09:56:00,32.5,21.7,0.00,WSW,241,0.0,0.0,64,0.00,,---,0.00,VWS V14.01,2013-03-01 14:56:00,
2013-03-01 10:01:00,32.5,21.7,0.00,WSW,241,0.0,0.0,64,0.00,,---,0.00,VWS V14.01,2013-03-01 15:01:00,
2013-03-01 10:05:00,32.5,21.4,0.00,WSW,241,0.0,0.0,63,0.00,,---,0.00,VWS V14.01,2013-03-01 15:05:00,
2013-03-01 10:10:00,32.4,21.2,0.00,WSW,241,0.0,0.0,63,0.00,,---,0.00,VWS V14.01,2013-03-01 15:10:00,
2013-03-01 10:15:00,32.4,21.2,0.00,WSW,241,0.0,0.0,63,0.00,,---,0.00,VWS V14.01,2013-03-01 15:15:00,
2013-03-01 10:20:00,32.4,20.8,0.00,WSW,241,0.0,0.0,62,0.00,,---,0.00,VWS V14.01,2013-03-01 15:20:00,
2013-03-01 10:25:00,32.4,20.4,0.00,WSW,241,0.0,0.0,61,0.00,,---,0.00,VWS V14.01,2013-03-01 15:25:00,
2013-03-01 10:30:00,32.2,20.3,0.00,WSW,241,0.0,0.0,61,0.00,,---,0.00,VWS V14.01,2013-03-01 15:30:00,
2013-03-01 10:35:00,32.4,20.4,0.00,WSW,241,0.0,0.0,61,0.00,,---,0.00,VWS V14.01,2013-03-01 15:35:00,
2013-03-01 10:40:00,32.2,20.3,0.00,WSW,241,0.0,0.0,61,0.00,,---,0.00,VWS V14.01,2013-03-01 15:40:00,
2013-03-01 10:45:00,32.2,20.3,0.00,WSW,241,0.0,0.0,61,0.00,,---,0.00,VWS V14.01,2013-03-01 15:45:00,
2013-03-01 10:50:00,32.2,20.3,0.00,WSW,241,0.0,0.0,61,0.00,,---,0.00,VWS V14.01,2013-03-01 15:50:00,
2013-03-01 10:55:00,32.0,20.1,0.00,WSW,241,0.0,0.0,61,0.00,,---,0.00,VWS V14.01,2013-03-01 15:55:00,
2013-03-01 11:00:00,32.2,20.3,0.00,WSW,241,0.0,0.0,61,0.00,,---,0.00,VWS V14.01,2013-03-01 16:00:00,
2013-03-01 11:05:00,32.2,20.3,0.00,WSW,241,0.0,0.0,61,0.00,,---,0.00,VWS V14.01,2013-03-01 16:05:00,
2013-03-01 11:10:00,32.0,20.1,0.00,WSW,241,0.0,0.0,61,0.00,,---,0.00,VWS V14.01,2013-03-01 16:10:00,
2013-03-01 11:15:00,32.2,20.3,0.00,WSW,241,0.0,0.0,61,0.00,,---,0.00,VWS V14.01,2013-03-01 16:15:00,
2013-03-01 11:20:00,32.2,20.3,0.00,WSW,241,0.0,0.0,61,0.00,,---,0.00,VWS V14.01,2013-03-01 16:20:00,
2013-03-01 11:25:00,32.2,20.3,0.00,WSW,241,0.0,0.0,61,0.00,,---,0.00,VWS V14.01,2013-03-01 16:25:00,
2013-03-01 11:30:00,32.2,20.3,0.00,WSW,241,0.0,0.0,61,0.00,,---,0.00,VWS V14.01,2013-03-01 16:30:00,
2013-03-01 11:35:00,32.2,20.3,0.00,WSW,241,0.0,0.0,61,0.00,,---,0.00,VWS V14.01,2013-03-01 16:35:00,
2013-03-01 11:40:00,32.2,20.3,0.00,WSW,241,0.0,0.0,61,0.00,,---,0.00,VWS V14.01,2013-03-01 16:40:00,
2013-03-01 11:45:00,32.2,20.3,0.00,WSW,241,0.0,0.0,61,0.00,,---,0.00,VWS V14.01,2013-03-01 16:45:00,
2013-03-01 11:50:00,32.2,20.3,0.00,WSW,241,0.0,0.0,61,0.00,,---,0.00,VWS V14.01,2013-03-01 16:50:00,
2013-03-01 11:55:00,32.4,20.4,0.00,WSW,240,0.0,0.0,61,0.00,,---,0.00,VWS V14.01,2013-03-01 16:55:00,
2013-03-01 12:00:00,32.2,20.3,0.00,WSW,241,0.0,0.0,61,0.00,,---,0.00,VWS V14.01,2013-03-01 17:00:00,
2013-03-01 12:05:00,32.4,20.4,0.00,WSW,241,0.0,0.0,61,0.00,,---,0.00,VWS V14.01,2013-03-01 17:05:00,
2013-03-01 12:10:00,32.4,20.4,0.00,WSW,240,0.0,0.0,61,0.00,,---,0.00,VWS V14.01,2013-03-01 17:10:00,
2013-03-01 12:15:00,32.5,20.6,0.00,WSW,240,0.0,0.0,61,0.00,,---,0.00,VWS V14.01,2013-03-01 17:15:00,
2013-03-01 12:20:00,32.5,20.6,0.00,WSW,240,0.0,0.0,61,0.00,,---,0.00,VWS V14.01,2013-03-01 17:20:00,
2013-03-01 12:25:00,32.7,20.8,0.00,WSW,240,0.0,0.0,61,0.00,,---,0.00,VWS V14.01,2013-03-01 17:25:00,
2013-03-01 12:30:00,32.7,20.8,0.00,WSW,240,0.0,0.0,61,0.00,,---,0.00,VWS V14.01,2013-03-01 17:30:00,
2013-03-01 12:35:00,32.5,20.2,0.00,WSW,240,0.0,0.0,60,0.00,,---,0.00,VWS V14.01,2013-03-01 17:35:00,
2013-03-01 12:40:00,32.7,20.4,0.00,WSW,240,0.0,0.0,60,0.00,,---,0.00,VWS V14.01,2013-03-01 17:40:00,
2013-03-01 12:45:00,32.7,20.4,0.00,WSW,240,0.0,0.0,60,0.00,,---,0.00,VWS V14.01,2013-03-01 17:45:00,
2013-03-01 12:50:00,32.7,20.4,0.00,WSW,240,0.0,0.0,60,0.00,,---,0.00,VWS V14.01,2013-03-01 17:50:00,
2013-03-01 12:55:00,32.5,19.8,0.00,North,353,0.0,0.0,59,0.00,,---,0.00,VWS V14.01,2013-03-01 17:55:00,
2013-03-01 13:00:00,32.4,19.6,0.00,North,353,0.0,0.0,59,0.00,,---,0.00,VWS V14.01,2013-03-01 18:00:00,
2013-03-01 13:05:00,32.4,19.6,0.00,SSW,206,0.0,0.0,59,0.00,,---,0.00,VWS V14.01,2013-03-01 18:05:00,
2013-03-01 13:10:00,32.2,19.5,0.00,SSW,206,0.0,0.0,59,0.00,,---,0.00,VWS V14.01,2013-03-01 18:10:00,
2013-03-01 13:15:00,32.2,19.5,0.00,SSW,206,0.0,0.0,59,0.00,,---,0.00,VWS V14.01,2013-03-01 18:15:00,
2013-03-01 13:20:00,32.2,19.5,0.00,SSW,206,0.0,0.0,59,0.00,,---,0.00,VWS V14.01,2013-03-01 18:20:00,
2013-03-01 13:25:00,32.2,19.5,0.00,SSW,206,0.0,0.0,59,0.00,,---,0.00,VWS V14.01,2013-03-01 18:25:00,
2013-03-01 13:30:00,32.2,19.5,0.00,SSW,206,0.0,0.0,59,0.00,,---,0.00,VWS V14.01,2013-03-01 18:30:00,
2013-03-01 13:35:00,32.0,19.3,0.00,SSW,206,0.0,0.0,59,0.00,,---,0.00,VWS V14.01,2013-03-01 18:35:00,
2013-03-01 13:40:00,32.0,19.3,0.00,SSW,206,0.0,0.0,59,0.00,,---,0.00,VWS V14.01,2013-03-01 18:40:00,
2013-03-01 13:45:00,32.0,19.3,0.00,SSW,206,0.0,0.0,59,0.00,,---,0.00,VWS V14.01,2013-03-01 18:45:00,
2013-03-01 13:50:00,32.0,19.3,0.00,SSW,206,0.0,0.0,59,0.00,,---,0.00,VWS V14.01,2013-03-01 18:50:00,
2013-03-01 13:55:00,31.8,19.1,0.00,SSW,206,0.0,0.0,59,0.00,,---,0.00,VWS V14.01,2013-03-01 18:55:00,
2013-03-01 14:00:00,31.8,18.7,0.00,SSW,206,0.0,0.0,58,0.00,,---,0.00,VWS V14.01,2013-03-01 19:00:00,
2013-03-01 14:05:00,32.0,18.9,0.00,SSW,206,0.0,0.0,58,0.00,,---,0.00,VWS V14.01,2013-03-01 19:05:00,
2013-03-01 14:10:00,32.0,18.9,0.00,SSW,206,0.0,0.0,58,0.00,,---,0.00,VWS V14.01,2013-03-01 19:10:00,
2013-03-01 14:15:00,32.0,18.9,0.00,SSW,206,0.0,0.0,58,0.00,,---,0.00,VWS V14.01,2013-03-01 19:15:00,
2013-03-01 14:20:00,32.0,18.9,0.00,SSW,206,0.0,0.0,58,0.00,,---,0.00,VWS V14.01,2013-03-01 19:20:00,
2013-03-01 14:25:00,32.0,18.9,0.00,SSW,206,0.0,0.0,58,0.00,,---,0.00,VWS V14.01,2013-03-01 19:25:00,
2013-03-01 14:30:00,32.0,18.9,0.00,SSW,206,0.0,0.0,58,0.00,,---,0.00,VWS V14.01,2013-03-01 19:30:00,
2013-03-01 14:35:00,32.0,18.9,0.00,SSW,206,0.0,0.0,58,0.00,,---,0.00,VWS V14.01,2013-03-01 19:35:00,
2013-03-01 14:40:00,31.8,18.7,0.00,SSW,206,0.0,3.6,58,0.00,,---,0.00,VWS V14.01,2013-03-01 19:40:00,
2013-03-01 14:45:00,31.6,18.6,0.00,SSW,206,0.0,0.0,58,0.00,,---,0.00,VWS V14.01,2013-03-01 19:45:00,
2013-03-01 14:50:00,31.6,18.6,0.00,SSW,206,0.0,0.0,58,0.00,,---,0.00,VWS V14.01,2013-03-01 19:50:00,
2013-03-01 14:56:00,31.5,18.4,0.00,SSW,206,0.0,4.0,58,0.00,,---,0.00,VWS V14.01,2013-03-01 19:56:00,
2013-03-01 15:01:00,31.6,19.0,0.00,SSW,206,3.6,3.6,59,0.00,,---,0.00,VWS V14.01,2013-03-01 20:01:00,
2013-03-01 15:06:00,31.3,18.2,0.00,SSW,206,4.0,4.0,58,0.00,,---,0.00,VWS V14.01,2013-03-01 20:06:00,
2013-03-01 15:11:00,31.1,18.1,0.00,SSW,206,0.0,0.0,58,0.00,,---,0.00,VWS V14.01,2013-03-01 20:11:00,
2013-03-01 15:16:00,31.3,18.6,0.00,SSW,206,5.4,5.4,59,0.00,,---,0.00,VWS V14.01,2013-03-01 20:16:00,
2013-03-01 15:21:00,31.3,18.6,0.00,SSW,206,0.0,2.2,59,0.00,,---,0.00,VWS V14.01,2013-03-01 20:21:00,
2013-03-01 15:26:00,31.3,18.6,0.00,SSW,206,0.0,4.0,59,0.00,,---,0.00,VWS V14.01,2013-03-01 20:26:00,
2013-03-01 15:31:00,31.3,18.6,0.00,SSW,206,0.0,0.0,59,0.00,,---,0.00,VWS V14.01,2013-03-01 20:31:00,
2013-03-01 15:36:00,31.1,18.5,0.00,SSW,206,0.0,0.0,59,0.00,,---,0.00,VWS V14.01,2013-03-01 20:36:00,
2013-03-01 15:41:00,31.1,18.5,0.00,SSW,206,0.0,0.0,59,0.00,,---,0.00,VWS V14.01,2013-03-01 20:41:00,
2013-03-01 15:46:00,31.3,18.6,0.00,SSW,206,0.0,2.7,59,0.00,,---,0.00,VWS V14.01,2013-03-01 20:46:00,
2013-03-01 15:51:00,31.3,18.6,0.00,SSW,206,0.0,0.0,59,0.00,,---,0.00,VWS V14.01,2013-03-01 20:51:00,
2013-03-01 15:56:00,31.3,18.6,0.00,SSW,206,0.0,0.0,59,0.00,,---,0.00,VWS V14.01,2013-03-01 20:56:00,
2013-03-01 16:01:00,31.1,18.5,0.00,SSW,206,0.0,0.0,59,0.00,,---,0.00,VWS V14.01,2013-03-01 21:01:00,
2013-03-01 16:06:00,31.1,18.5,0.00,SSW,206,0.0,3.1,59,0.00,,---,0.00,VWS V14.01,2013-03-01 21:06:00,
2013-03-01 16:11:00,31.1,18.5,0.00,SSW,206,0.0,0.0,59,0.00,,---,0.00,VWS V14.01,2013-03-01 21:11:00,
2013-03-01 16:16:00,31.1,18.5,0.00,SSW,206,0.0,4.0,59,0.00,,---,0.00,VWS V14.01,2013-03-01 21:16:00,
2013-03-01 16:21:00,30.9,18.3,0.00,SSW,206,0.0,0.0,59,0.00,,---,0.00,VWS V14.01,2013-03-01 21:21:00,
2013-03-01 16:26:00,30.9,18.7,0.00,SSW,206,2.2,2.7,60,0.00,,---,0.00,VWS V14.01,2013-03-01 21:26:00,
2013-03-01 16:31:00,30.9,18.7,0.00,SSW,206,0.0,3.6,60,0.00,,---,0.00,VWS V14.01,2013-03-01 21:31:00,
2013-03-01 16:36:00,30.7,18.5,0.00,SSW,206,0.0,0.0,60,0.00,,---,0.00,VWS V14.01,2013-03-01 21:36:00,
2013-03-01 16:41:00,30.7,18.9,0.00,SSW,206,0.0,0.0,61,0.00,,---,0.00,VWS V14.01,2013-03-01 21:41:00,
2013-03-01 16:46:00,30.9,19.1,0.00,SSW,206,2.2,3.1,61,0.00,,---,0.00,VWS V14.01,2013-03-01 21:46:00,
2013-03-01 16:51:00,30.9,19.1,0.00,SSW,206,0.0,0.0,61,0.00,,---,0.00,VWS V14.01,2013-03-01 21:51:00,
2013-03-01 16:56:00,30.9,19.1,0.00,SSW,206,0.0,0.0,61,0.00,,---,0.00,VWS V14.01,2013-03-01 21:56:00,
2013-03-01 17:01:00,30.9,19.1,0.00,SSW,206,0.0,0.0,61,0.00,,---,0.00,VWS V14.01,2013-03-01 22:01:00,
2013-03-01 17:05:00,30.9,19.5,0.00,SSW,206,0.0,0.0,62,0.00,,---,0.00,VWS V14.01,2013-03-01 22:05:00,
2013-03-01 17:10:00,30.9,19.5,0.00,SSW,206,0.0,0.0,62,0.00,,---,0.00,VWS V14.01,2013-03-01 22:10:00,
2013-03-01 17:15:00,30.9,19.5,0.00,SSW,206,0.0,0.0,62,0.00,,---,0.00,VWS V14.01,2013-03-01 22:15:00,
2013-03-01 17:20:00,30.9,19.5,0.00,SSW,206,0.0,0.0,62,0.00,,---,0.00,VWS V14.01,2013-03-01 22:20:00,
2013-03-01 17:25:00,31.1,20.0,0.00,SSW,206,0.0,0.0,63,0.00,,---,0.00,VWS V14.01,2013-03-01 22:25:00,
2013-03-01 17:30:00,31.3,20.2,0.00,SSW,206,0.0,0.0,63,0.00,,---,0.00,VWS V14.01,2013-03-01 22:30:00,
2013-03-01 17:35:00,31.1,20.0,0.00,SSW,206,0.0,0.0,63,0.00,,---,0.00,VWS V14.01,2013-03-01 22:35:00,
2013-03-01 17:40:00,31.1,20.0,0.00,SSW,206,0.0,0.0,63,0.00,,---,0.00,VWS V14.01,2013-03-01 22:40:00,
2013-03-01 17:45:00,31.1,20.0,0.00,SSW,206,0.0,0.0,63,0.00,,---,0.00,VWS V14.01,2013-03-01 22:45:00,
2013-03-01 17:50:00,31.1,20.0,0.00,SSW,206,0.0,0.0,63,0.00,,---,0.00,VWS V14.01,2013-03-01 22:50:00,
2013-03-01 17:55:00,30.7,19.6,0.00,SSW,206,0.0,0.0,63,0.00,,---,0.00,VWS V14.01,2013-03-01 22:55:00,
2013-03-01 18:00:00,30.6,19.5,0.00,SSW,206,0.0,0.0,63,0.00,,---,0.00,VWS V14.01,2013-03-01 23:00:00,
2013-03-01 18:05:00,30.6,19.5,0.00,SSW,206,0.0,0.0,63,0.00,,---,0.00,VWS V14.01,2013-03-01 23:05:00,
2013-03-01 18:10:00,30.4,19.3,0.00,SSW,206,0.0,0.0,63,0.00,,---,0.00,VWS V14.01,2013-03-01 23:10:00,
2013-03-01 18:15:00,30.4,19.3,0.00,SSW,206,0.0,0.0,63,0.00,,---,0.00,VWS V14.01,2013-03-01 23:15:00,
2013-03-01 18:20:00,30.2,19.1,0.00,SSW,206,0.0,0.0,63,0.00,,---,0.00,VWS V14.01,2013-03-01 23:20:00,
2013-03-01 18:25:00,30.2,19.5,0.00,SSW,206,0.0,0.0,64,0.00,,---,0.00,VWS V14.01,2013-03-01 23:25:00,
2013-03-01 18:30:00,30.2,19.5,0.00,SSW,206,3.1,3.1,64,0.00,,---,0.00,VWS V14.01,2013-03-01 23:30:00,
2013-03-01 18:35:00,30.2,19.5,0.00,SSW,206,0.0,5.4,64,0.00,,---,0.00,VWS V14.01,2013-03-01 23:35:00,
2013-03-01 18:40:00,29.8,19.2,0.00,SSW,206,3.1,5.4,64,0.00,,---,0.00,VWS V14.01,2013-03-01 23:40:00,
2013-03-01 18:45:00,29.7,19.0,0.00,SSW,206,0.0,0.0,64,0.00,,---,0.00,VWS V14.01,2013-03-01 23:45:00,
2013-03-01 18:50:00,29.7,19.0,0.00,SSW,206,0.0,0.0,64,0.00,,---,0.00,VWS V14.01,2013-03-01 23:50:00,
2013-03-01 18:55:00,29.7,19.0,0.00,SSW,206,0.0,0.0,64,0.00,,---,0.00,VWS V14.01,2013-03-01 23:55:00,
2013-03-01 19:00:00,29.7,19.0,0.00,SSW,206,2.2,3.1,64,0.00,,---,0.00,VWS V14.01,2013-03-02 00:00:00,
2013-03-01 19:05:00,29.7,19.0,0.00,SSW,206,0.0,0.0,64,0.00,,---,0.00,VWS V14.01,2013-03-02 00:05:00,
2013-03-01 19:10:00,29.7,19.0,0.00,SSW,206,3.6,3.6,64,0.00,,---,0.00,VWS V14.01,2013-03-02 00:10:00,
2013-03-01 19:15:00,29.5,18.8,0.00,SSW,206,3.1,3.1,64,0.00,,---,0.00,VWS V14.01,2013-03-02 00:15:00,
2013-03-01 19:20:00,29.3,18.6,0.00,SSW,206,4.0,4.0,64,0.00,,---,0.00,VWS V14.01,2013-03-02 00:20:00,
2013-03-01 19:25:00,28.9,17.9,0.00,SSW,206,0.0,0.0,63,0.00,,---,0.00,VWS V14.01,2013-03-02 00:25:00,
2013-03-01 19:30:00,28.9,17.9,0.00,SSW,206,0.0,0.0,63,0.00,,---,0.00,VWS V14.01,2013-03-02 00:30:00,
2013-03-01 19:35:00,28.8,17.8,0.00,SSW,206,3.6,3.6,63,0.00,,---,0.00,VWS V14.01,2013-03-02 00:35:00,
2013-03-01 19:40:00,28.8,17.8,0.00,SSW,206,0.0,2.2,63,0.00,,---,0.00,VWS V14.01,2013-03-02 00:40:00,
2013-03-01 19:45:00,28.8,17.8,0.00,SSW,206,0.0,0.0,63,0.00,,---,0.00,VWS V14.01,2013-03-02 00:45:00,
2013-03-01 19:50:00,28.8,17.8,0.00,SSW,206,3.6,3.6,63,0.00,,---,0.00,VWS V14.01,2013-03-02 00:50:00,
2013-03-01 19:55:00,28.8,17.8,0.00,SSW,206,0.0,5.4,63,0.00,,---,0.00,VWS V14.01,2013-03-02 00:55:00,
2013-03-01 20:00:00,28.8,17.8,0.00,SSW,206,0.0,0.0,63,0.00,,---,0.00,VWS V14.01,2013-03-02 01:00:00,
2013-03-01 20:05:00,28.6,17.6,0.00,SSW,206,0.0,3.6,63,0.00,,---,0.00,VWS V14.01,2013-03-02 01:05:00,
2013-03-01 20:10:00,28.6,17.6,0.00,SSW,206,0.0,0.0,63,0.00,,---,0.00,VWS V14.01,2013-03-02 01:10:00,
2013-03-01 20:15:00,28.6,17.6,0.00,SSW,206,0.0,4.5,63,0.00,,---,0.00,VWS V14.01,2013-03-02 01:15:00,
2013-03-01 20:20:00,28.6,17.6,0.00,SSW,206,0.0,3.1,63,0.00,,---,0.00,VWS V14.01,2013-03-02 01:20:00,
2013-03-01 20:25:00,28.6,17.6,0.00,SSW,206,0.0,0.0,63,0.00,,---,0.00,VWS V14.01,2013-03-02 01:25:00,
2013-03-01 20:30:00,28.6,17.6,0.00,SSW,206,3.1,3.1,63,0.00,,---,0.00,VWS V14.01,2013-03-02 01:30:00,
2013-03-01 20:35:00,28.6,17.6,0.00,SSW,206,2.2,3.1,63,0.00,,---,0.00,VWS V14.01,2013-03-02 01:35:00,
2013-03-01 20:40:00,28.8,18.1,0.00,SSW,206,2.2,2.2,64,0.00,,---,0.00,VWS V14.01,2013-03-02 01:40:00,
2013-03-01 20:45:00,28.8,17.8,0.00,SSW,206,2.2,5.4,63,0.00,,---,0.00,VWS V14.01,2013-03-02 01:45:00,
2013-03-01 20:50:00,28.8,18.1,0.00,SSW,206,2.7,3.1,64,0.00,,---,0.00,VWS V14.01,2013-03-02 01:50:00,
2013-03-01 20:55:00,28.6,18.0,0.00,SSW,206,0.0,0.0,64,0.00,,---,0.00,VWS V14.01,2013-03-02 01:55:00,
2013-03-01 21:00:00,28.6,18.0,0.00,SSW,206,0.0,0.0,64,0.00,,---,0.00,VWS V14.01,2013-03-02 02:00:00,
2013-03-01 21:06:00,28.6,18.0,0.00,SSW,206,0.0,3.6,64,0.00,,---,0.00,VWS V14.01,2013-03-02 02:06:00,
2013-03-01 21:10:00,28.6,18.0,0.00,SSW,206,0.0,3.6,64,0.00,,---,0.00,VWS V14.01,2013-03-02 02:10:00,
2013-03-01 21:15:00,28.8,18.1,0.00,SSW,206,0.0,3.6,64,0.00,,---,0.00,VWS V14.01,2013-03-02 02:15:00,
2013-03-01 21:20:00,28.8,18.1,0.00,SSW,206,0.0,0.0,64,0.00,,---,0.00,VWS V14.01,2013-03-02 02:20:00,
2013-03-01 21:25:00,28.8,18.1,0.00,SSW,206,0.0,0.0,64,0.00,,---,0.00,VWS V14.01,2013-03-02 02:25:00,
2013-03-01 21:30:00,28.8,18.1,0.00,SSW,206,3.1,4.9,64,0.00,,---,0.00,VWS V14.01,2013-03-02 02:30:00,
2013-03-01 21:35:00,28.6,18.0,0.00,SSW,206,3.6,3.6,64,0.00,,---,0.00,VWS V14.01,2013-03-02 02:35:00,
2013-03-01 21:40:00,28.6,18.0,0.00,SSW,206,0.0,4.5,64,0.00,,---,0.00,VWS V14.01,2013-03-02 02:40:00,
2013-03-01 21:45:00,28.6,18.3,0.00,SSW,206,0.0,0.0,65,0.00,,---,0.00,VWS V14.01,2013-03-02 02:45:00,
2013-03-01 21:50:00,28.6,18.3,0.00,SSW,206,0.0,3.1,65,0.00,,---,0.00,VWS V14.01,2013-03-02 02:50:00,
2013-03-01 21:55:00,28.8,18.5,0.00,SSW,206,5.4,5.4,65,0.00,,---,0.00,VWS V14.01,2013-03-02 02:55:00,
2013-03-01 22:01:00,28.6,18.3,0.00,SSW,206,0.0,0.0,65,0.00,,---,0.00,VWS V14.01,2013-03-02 03:01:00,
2013-03-01 22:06:00,28.6,18.3,0.00,SSW,206,0.0,0.0,65,0.00,,---,0.00,VWS V14.01,2013-03-02 03:06:00,
2013-03-01 22:11:00,28.4,18.1,0.00,SSW,206,2.7,3.6,65,0.00,,---,0.00,VWS V14.01,2013-03-02 03:11:00,
2013-03-01 22:16:00,28.4,18.1,0.00,SSW,206,3.1,3.1,65,0.00,,---,0.00,VWS V14.01,2013-03-02 03:16:00,
2013-03-01 22:21:00,28.4,18.5,0.00,SSW,206,3.1,3.1,66,0.00,,---,0.00,VWS V14.01,2013-03-02 03:21:00,
2013-03-01 22:26:00,28.4,18.5,0.00,SSW,206,0.0,4.0,66,0.00,,---,0.00,VWS V14.01,2013-03-02 03:26:00,
2013-03-01 22:31:00,28.2,18.3,0.00,SSW,206,0.0,0.0,66,0.00,,---,0.00,VWS V14.01,2013-03-02 03:31:00,
2013-03-01 22:36:00,28.4,18.5,0.00,SSW,206,0.0,0.0,66,0.00,,---,0.00,VWS V14.01,2013-03-02 03:36:00,
2013-03-01 22:41:00,28.4,18.5,0.00,SSW,206,2.7,2.7,66,0.00,,---,0.00,VWS V14.01,2013-03-02 03:41:00,
2013-03-01 22:46:00,28.2,18.3,0.00,SSW,206,0.0,0.0,66,0.00,,---,0.00,VWS V14.01,2013-03-02 03:46:00,
2013-03-01 22:51:00,28.0,18.2,0.00,SSW,206,0.0,0.0,66,0.00,,---,0.00,VWS V14.01,2013-03-02 03:51:00,
2013-03-01 22:56:00,28.0,18.2,0.00,SSW,206,0.0,2.7,66,0.00,,---,0.00,VWS V14.01,2013-03-02 03:56:00,
2013-03-01 23:01:00,27.9,18.0,0.00,SSW,206,4.0,4.0,66,0.00,,---,0.00,VWS V14.01,2013-03-02 04:01:00,
2013-03-01 23:06:00,28.0,18.2,0.00,SSW,206,0.0,0.0,66,0.00,,---,0.00,VWS V14.01,2013-03-02 04:06:00,
2013-03-01 23:11:00,28.2,18.7,0.00,SSW,206,2.2,2.2,67,0.00,,---,0.00,VWS V14.01,2013-03-02 04:11:00,
2013-03-01 23:16:00,28.2,18.7,0.00,SSW,206,0.0,0.0,67,0.00,,---,0.00,VWS V14.01,2013-03-02 04:16:00,
2013-03-01 23:21:00,28.2,18.7,0.00,SSW,206,0.0,0.0,67,0.00,,---,0.00,VWS V14.01,2013-03-02 04:21:00,
2013-03-01 23:26:00,28.2,18.3,0.00,SSW,206,0.0,0.0,66,0.00,,---,0.00,VWS V14.01,2013-03-02 04:26:00,
2013-03-01 23:31:00,28.4,18.9,0.00,SSW,206,0.0,0.0,67,0.00,,---,0.00,VWS V14.01,2013-03-02 04:31:00,
2013-03-01 23:36:00,28.4,18.9,0.00,SSW,206,0.0,0.0,67,0.00,,---,0.00,VWS V14.01,2013-03-02 04:36:00,
2013-03-01 23:41:00,28.2,18.3,0.00,SSW,206,4.0,4.0,66,0.00,,---,0.00,VWS V14.01,2013-03-02 04:41:00,
2013-03-01 23:46:00,28.2,18.3,0.00,SSW,206,0.0,0.0,66,0.00,,---,0.00,VWS V14.01,2013-03-02 04:46:00,
2013-03-01 23:51:00,28.4,18.9,0.00,SSW,206,0.0,0.0,67,0.00,,---,0.00,VWS V14.01,2013-03-02 04:51:00,
2013-03-01 23:56:00,28.2,18.3,0.00,SSW,206,2.7,2.7,66,0.00,,---,0.00,VWS V14.01,2013-03-02 04:56:00,